(295070) = 2008 EG125 = 2002 UR31

Discovered at Catalina on 2008-03-10 by CSS.

Orbit

Orbit type: Main Belt

Note: WebGL enabled browser required.

epoch2023-09-13.0
epoch JD2460200.5
perihelion date2020-04-17.79161
perihelion JD2458957.29161
argument of perihelion (°)295.42351
ascending node (°)350.33755
inclination (°)8.58235
eccentricity0.2243330
perihelion distance (AU)1.8419266
Tisserand w.r.t. Jupiter3.5
ΔV w.r.t. Earth (km/sec)8.8
semimajor axis (AU)2.3746357
mean anomaly (°)334.85152
mean daily motion (°/day)0.26934470
aphelion distance (AU)2.907
period (years)3.66
P-vector [x]0.27332378
P-vector [y]-0.82022817
P-vector [z]-0.50251355
Q-vector [x]0.96159593
Q-vector [y]0.21938051
Q-vector [z]0.16494076
absolute magnitude16.5
phase slope0.15
uncertainty0
referenceMPO 779118
observations used501
oppositions15
arc length (days)9063
first opposition used1998
last opposition used2023
residual rms (arc-secs)0.73
perturbers coarse indicatorM-v
perturbers precise indicator003Ek
first observation date used1998-08-17.0
last observation date used2023-06-10.0
computer nameMPCLINUX
JD of orbit computation2456639.842455
perihelion JD uncertainty (days)1.1042E-04
argument of perihelion uncertainty (°)4.9224E-05
ascending node uncertainty (°)3.9256E-05
inclination uncertainty (°)1.3001E-05
eccentricity uncertainty 5.4493E-08
perihelion distance uncertainty (AU)1.2866E-07
Minimum Orbit Intersection Distances (in AU)
for orbit epoch: 2460000.5, reference: E2023-L52
Mercury1.38548
Venus1.12039
Earth0.84457
Mars0.44883
Jupiter2.32439
Saturn6.21361
Uranus15.7367
Neptune27.2378

Observations

524 total observations over interval: 1998 08 17.35086 – 2023 06 10.220506
These data are available for download (format description).

Date (UT) J2000 RA J2000 Dec Magn Location Ref
1998 08 17.35086 22 29 32.32 -16 47 40.8   704 – Lincoln Laboratory ETS, New Mexico MPS 407580
1998 08 17.39322 22 29 29.51 -16 47 36.0   704 – Lincoln Laboratory ETS, New Mexico MPS 407580
1998 08 17.41430 22 29 27.96 -16 47 35.1   704 – Lincoln Laboratory ETS, New Mexico MPS 407580
1998 08 17.43525 22 29 26.70 -16 47 34.8   704 – Lincoln Laboratory ETS, New Mexico MPS 407580
2001 03 19.23995 12 07 05.08 -03 46 59.0 18.8 R 699 – Lowell Observatory-LONEOS MPS 253108
2001 03 19.27654 12 07 02.55 -03 46 53.9   699 – Lowell Observatory-LONEOS MPS 253108
2001 03 19.31320 12 07 00.13 -03 46 48.5   699 – Lowell Observatory-LONEOS MPS 253108
2001 03 19.34999 12 06 57.76 -03 46 41.1   699 – Lowell Observatory-LONEOS MPS 253108
2002 10 30.48771 01 33 56.56 +20 14 30.9 20.3   608 – Haleakala-AMOS MPS 66335
2002 10 30.49861 01 33 55.85 +20 14 28.2 20.3   608 – Haleakala-AMOS MPS 66335
2002 10 30.50950 01 33 55.12 +20 14 25.5 20.1   608 – Haleakala-AMOS MPS 66335
2002 11 01.22171 01 32 08.66 +20 07 12.8 19.7   644 – Palomar Mountain/NEAT MPS 66335
2002 11 01.24256 01 32 07.33 +20 07 07.5 19.5   644 – Palomar Mountain/NEAT MPS 66335
2002 11 01.26489 01 32 05.90 +20 07 01.9 19.7   644 – Palomar Mountain/NEAT MPS 66335
2005 01 19.29659 14 46 13.30 -20 22 07.3 21.3 R 809 – European Southern Observatory, La Silla MPS 253108
2005 01 19.30331 14 46 13.95 -20 22 11.8 20.7 R 809 – European Southern Observatory, La Silla MPS 253108
2005 01 19.31008 14 46 14.60 -20 22 16.2 20.8 R 809 – European Southern Observatory, La Silla MPS 253108
2008 02 03.21063 10 26 24.37 +15 42 08.8 20.9 V 691 – Steward Observatory, Kitt Peak-Spacewatch MPS 253108
2008 02 03.22827 10 26 23.36 +15 42 13.1 21.1 V 691 – Steward Observatory, Kitt Peak-Spacewatch MPS 253108
2008 02 03.24589 10 26 22.41 +15 42 16.6 20.7 V 691 – Steward Observatory, Kitt Peak-Spacewatch MPS 253108
2008 02 11.22361 10 18 34.87 +16 11 00.7   691 – Steward Observatory, Kitt Peak-Spacewatch MPS 253108
2008 02 11.24127 10 18 33.74 +16 11 05.0   691 – Steward Observatory, Kitt Peak-Spacewatch MPS 253108
2008 02 11.26239 10 18 32.39 +16 11 09.4   691 – Steward Observatory, Kitt Peak-Spacewatch MPS 253108
2008 03 10.29190 09 48 53.17 +17 23 59.4 20.7 V 703 – Catalina Sky Survey MPS 244182
2008 03 10.29859 09 48 52.84 +17 23 59.8 20.1 V 703 – Catalina Sky Survey MPS 244182
2008 03 10.30532 09 48 52.34 +17 23 59.8 20.1 V 703 – Catalina Sky Survey MPS 244182
2008 03 10.31211 09 48 52.12 +17 24 00.5 20.3 V 703 – Catalina Sky Survey MPS 244182
2008 03 15.21089 09 44 36.31 +17 27 24.9 20.3 V G96 – Mt. Lemmon Survey MPS 244182
2008 03 15.21629 09 44 36.06 +17 27 25.1 20.2 V G96 – Mt. Lemmon Survey MPS 244182
2008 03 15.22187 09 44 35.77 +17 27 25.0 20.4 V G96 – Mt. Lemmon Survey MPS 244182
2008 03 15.22734 09 44 35.48 +17 27 25.4 20.3 V G96 – Mt. Lemmon Survey MPS 244182
2008 04 05.17669 09 33 23.61 +17 04 39.3 21.3 V G96 – Mt. Lemmon Survey MPS 253108
2008 04 05.18395 09 33 23.50 +17 04 37.9 21.3 V G96 – Mt. Lemmon Survey MPS 253108
2008 04 05.19124 09 33 23.40 +17 04 37.1 21.1 V G96 – Mt. Lemmon Survey MPS 253108
2008 04 05.19859 09 33 23.29 +17 04 36.3 20.9 V G96 – Mt. Lemmon Survey MPS 253108
2009 08 15.35224 23 03 28.41 -11 58 19.3 18.3   704 – Lincoln Laboratory ETS, New Mexico MPS 291791
2009 08 15.38841 23 03 26.21 -11 58 18.9 19.1   704 – Lincoln Laboratory ETS, New Mexico MPS 291791
2009 08 15.40044 23 03 25.47 -11 58 18.2 19.0   704 – Lincoln Laboratory ETS, New Mexico MPS 291791
2009 08 20.02733 22 58 53.21 -11 55 36.1 17.8 V J75 – OAM Observatory, La Sagra MPS 291791
2009 08 20.04071 22 58 52.33 -11 55 35.6 18.0 V J75 – OAM Observatory, La Sagra MPS 291791
2009 08 20.05459 22 58 51.41 -11 55 35.4 17.9 V J75 – OAM Observatory, La Sagra MPS 291791
2009 08 21.02564 22 57 51.19 -11 55 02.7 18.0 V J75 – OAM Observatory, La Sagra MPS 292658
2009 08 21.03899 22 57 50.34 -11 55 02.2 17.9 V J75 – OAM Observatory, La Sagra MPS 292658
2009 08 21.05230 22 57 49.44 -11 55 01.7 18.0 V J75 – OAM Observatory, La Sagra MPS 292658
2009 08 22.20053 22 56 37.37 -11 54 21.1 18.4   704 – Lincoln Laboratory ETS, New Mexico MPS 292658
2009 08 22.21321 22 56 36.55 -11 54 20.9 18.4   704 – Lincoln Laboratory ETS, New Mexico MPS 292658
2009 08 22.22591 22 56 35.74 -11 54 20.5 18.5   704 – Lincoln Laboratory ETS, New Mexico MPS 292658
2009 08 22.23867 22 56 34.86 -11 54 19.8 18.3   704 – Lincoln Laboratory ETS, New Mexico MPS 292658
2009 08 22.25137 22 56 34.06 -11 54 19.9 18.4   704 – Lincoln Laboratory ETS, New Mexico MPS 292658
2009 08 26.01634 22 52 29.64 -11 52 01.7 17.8 V J75 – OAM Observatory, La Sagra MPS 292658
2009 08 26.02970 22 52 28.73 -11 52 01.3 17.7 V J75 – OAM Observatory, La Sagra MPS 292658
2009 08 26.04353 22 52 27.78 -11 52 00.3 17.8 V J75 – OAM Observatory, La Sagra MPS 292658
2009 08 26.30324 22 52 10.77 -11 51 48.4 18.0 V 703 – Catalina Sky Survey MPS 292658
2009 08 26.31153 22 52 10.16 -11 51 48.6 18.2 V 703 – Catalina Sky Survey MPS 292658
2009 08 26.31980 22 52 09.58 -11 51 47.6 18.0 V 703 – Catalina Sky Survey MPS 292658
2009 08 26.32808 22 52 09.01 -11 51 47.7 17.8 V 703 – Catalina Sky Survey MPS 292658
2009 08 26.96411 22 51 27.23 -11 51 22.4 18.0 V J75 – OAM Observatory, La Sagra MPS 294455
2009 08 26.97743 22 51 26.33 -11 51 21.3 18.0 V J75 – OAM Observatory, La Sagra MPS 294455
2009 08 26.99073 22 51 25.41 -11 51 21.3 17.8 V J75 – OAM Observatory, La Sagra MPS 294455
2009 09 14.19310 22 32 17.78 -11 27 11.1 18.6   704 – Lincoln Laboratory ETS, New Mexico MPS 295059
2009 09 14.20497 22 32 17.05 -11 27 09.4 18.9   704 – Lincoln Laboratory ETS, New Mexico MPS 295059
2009 09 14.21676 22 32 16.37 -11 27 08.1 18.7   704 – Lincoln Laboratory ETS, New Mexico MPS 295059
2009 09 14.22855 22 32 15.69 -11 27 06.8 19.0   704 – Lincoln Laboratory ETS, New Mexico MPS 295059
2009 09 14.24033 22 32 15.02 -11 27 05.2 18.9   704 – Lincoln Laboratory ETS, New Mexico MPS 295059
2009 09 20.93374 22 26 43.81 -11 10 31.2 18.4 V J75 – OAM Observatory, La Sagra MPS 295919
2009 09 20.94718 22 26 43.22 -11 10 28.3 18.6 V J75 – OAM Observatory, La Sagra MPS 295919
2009 09 20.96060 22 26 42.59 -11 10 26.0 18.4 V J75 – OAM Observatory, La Sagra MPS 295919
2009 09 21.19608 22 26 32.53 -11 09 45.5 18.6 V 703 – Catalina Sky Survey MPS 295919
2009 09 21.20267 22 26 32.17 -11 09 45.0 18.1 V 703 – Catalina Sky Survey MPS 295919
2009 09 21.20926 22 26 31.88 -11 09 44.2 18.0 V 703 – Catalina Sky Survey MPS 295919
2009 09 21.21605 22 26 31.63 -11 09 43.3 18.4 V 703 – Catalina Sky Survey MPS 295919
2009 09 27.16770 22 22 48.43 -10 50 37.3 18.6 V 703 – Catalina Sky Survey MPS 296995
2009 09 27.17510 22 22 48.18 -10 50 35.2 18.6 V 703 – Catalina Sky Survey MPS 296995
2009 09 27.18248 22 22 47.89 -10 50 33.5 18.5 V 703 – Catalina Sky Survey MPS 296995
2009 09 27.18982 22 22 47.64 -10 50 32.3 18.5 V 703 – Catalina Sky Survey MPS 296995
2009 10 22.14573 22 20 11.00 -08 50 45.9 19.5 V 703 – Catalina Sky Survey MPS 300761
2009 10 22.15302 22 20 11.11 -08 50 43.9 20.0 V 703 – Catalina Sky Survey MPS 300761
2009 10 22.16027 22 20 11.18 -08 50 40.7 20.1 V 703 – Catalina Sky Survey MPS 300761
2009 10 22.16752 22 20 11.36 -08 50 36.9 19.6 V 703 – Catalina Sky Survey MPS 300761
2012 02 23.40332 12 44 40.77 -06 41 57.5 20.0 V 691 – Steward Observatory, Kitt Peak-Spacewatch MPS 414092
2012 02 23.42126 12 44 40.24 -06 41 59.2 20.1 V 691 – Steward Observatory, Kitt Peak-Spacewatch MPS 414092
2012 02 23.43919 12 44 39.72 -06 42 00.8 19.8 V 691 – Steward Observatory, Kitt Peak-Spacewatch MPS 414092
2012 02 27.38962 12 42 38.45 -06 47 06.1 19.8 V 691 – Steward Observatory, Kitt Peak-Spacewatch MPS 416064
2012 02 27.40757 12 42 37.81 -06 47 06.9 19.7 V 691 – Steward Observatory, Kitt Peak-Spacewatch MPS 416064
2012 02 27.42554 12 42 37.11 -06 47 08.1 19.8 V 691 – Steward Observatory, Kitt Peak-Spacewatch MPS 416064
2012 02 27.47681 12 42 35.566 -06 47 10.21 20.0 w F51 – Pan-STARRS 1, Haleakala MPS 416064
2012 02 27.49161 12 42 35.024 -06 47 11.09 20.1 w F51 – Pan-STARRS 1, Haleakala MPS 416064
2012 02 27.50638 12 42 34.488 -06 47 11.97 20.1 w F51 – Pan-STARRS 1, Haleakala MPS 416064
2012 02 27.52113 12 42 33.938 -06 47 12.85 20.1 w F51 – Pan-STARRS 1, Haleakala MPS 416064
